Location: Newark
(47.6522°N, 2.0836°W)
Time: 03:14:45
(UTC+00:00)

Envisat - Visible Passes

Search period start: 20 September 2019 00:00
Search period end: 30 September 2019 00:00
Orbit: 764 x 766 km, 98.1° (Epoch: 19 September)

Date Brightness Start Highest point End Pass type
(mag) Time Alt. Az. Time Alt. Az. Time Alt. Az.
20 Sep 5.7 19:26:32 10° SW 19:30:19 21° W 19:34:08 10° NW visible
21 Sep 4.4 18:48:27 10° S 18:53:16 42° W 18:58:06 10° NNW visible
22 Sep 6.1 19:54:07 10° WSW 19:56:10 12° W 19:58:14 10° WNW visible
23 Sep 5.4 19:14:46 10° SSW 19:18:57 26° W 19:23:11 10° NW visible
24 Sep 4.0 18:37:00 10° S 18:41:57 52° W 18:46:56 10° NNW visible
25 Sep 6.0 19:41:46 10° SW 19:44:46 16° W 19:47:45 10° NW visible
26 Sep 5.0 19:03:06 10° SSW 19:07:36 31° W 19:12:08 10° NNW visible
27 Sep 3.5 18:25:37 10° S 18:30:39 65° WSW 18:35:44 10° NNW visible
28 Sep 5.8 19:29:46 10° SW 19:33:22 19° W 19:36:59 10° NW visible
29 Sep 4.6 18:51:32 10° SSW 18:56:17 39° W 19:01:02 10° NNW visible
